User: anonymous   Login
Location: Mount Tamalpais State Park
(37.9108°N, 122.6128°W)
Time: 15:48:33
(UTC-07:00)
Language:

Cosmos 1814 Rocket - Orbit

View from above orbital plane
View from above orbital plane
View from above satellite
View from above satellite

Ground track
Ground track

The orbit data is extracted from the following two-line orbital elements,

1 17304U 87006B   17178.87913550 +.00000013 +00000-0 +13171-4 0  9999
2 17304 074.0597 071.0220 0030768 267.0469 092.7164 14.37603390594619
Epoch (UTC): 27 June 2017 21:05:57
Eccentricity: 0.0030768
inclination: 74.0597°
perigee height: 744 km
apogee height: 788 km
right ascension of ascending node: 71.0220°
argument of perigee: 267.0469°
revolutions per day: 14.37603390
mean anomaly at epoch: 92.7164°
orbit number at epoch: 59461

The dashed part of the orbit path shows where the satellite is in the earth's shadow,  

DLR